Yuma, AZ

4:25 AM MST on February 08, 2016 (GMT -0700)
Yuma Marine Corps Air Station

Weather History for KNYL - October, 2013

Change the Weather History Date:

Tuesday, October 15, 2013

  Actual Average Record
Temperature  
Mean Temperature 74 °F 78 °F  
Max Temperature 87 °F 90 °F 105 °F (1950)
Min Temperature 60 °F 65 °F 43 °F (1899)
Degree Days  
Heating Degree Days 0 0  
Month to date heating degree days 0 0  
Since 1 July heating degree days 0 0  
Cooling Degree Days 9 13  
Month to date cooling degree days 177 233  
Year to date cooling degree days 4560 4407  
Growing Degree Days 24 (Base 50)    
Moisture  
Dew Point 27 °F    
Average Humidity 21    
Maximum Humidity 35    
Minimum Humidity 7    
Precipitation  
Precipitation 0.00 in 0.00 in 0.04 in (1964)
Month to date precipitation T 0.12  
Year to date precipitation 2.31 2.74  
Sea Level Pressure  
Sea Level Pressure 29.91 in    
Wind  
Wind Speed 7 mph (North)    
Max Wind Speed 17 mph    
Max Gust Speed 23 mph    
Visibility 10 miles    
Events      
T = Trace of Precipitation, MM = Missing Value Source: NWS Daily Summary

Daily Weather History Graph

Daily Weather History Graph

Search for Another Location

Airport or City:

Trip Planner

Search our weather history database for the weather conditions in past years. The results will help you decide how hot, cold, wet, or windy it might be!

Date:

Astronomy

Oct. 15, 2013 Rise Set
Actual Time 6:42 AM MST 6:05 PM MST
Civil Twilight 6:17 AM MST 6:29 PM MST
Nautical Twilight 5:49 AM MST 6:58 PM MST
Astronomical Twilight 5:20 AM MST 7:26 PM MST
Moon 4:04 PM MST (10/15) 3:20 AM MST (10/15)
Length of Visible Light 12h 12m
Length of Day
11h 22m
Waxing Gibbous, 88% of the Moon is Illuminated
Oct 15
Waxing Gibbous
Oct 18
Full
Oct 26
Last Quarter
Nov 3
New
Nov 9
First Quarter

Hourly Weather History & Observations

Time (MST) Temp. Dew Point Humidity Pressure Visibility Wind Dir Wind Speed Gust Speed Precip Events Conditions
12:57 AM 70.0 °F 28.9 °F 22% 29.91 in 10.0 mi NNW 6.9 mph - N/A   Clear
1:57 AM 66.9 °F 30.9 °F 26% 29.91 in 10.0 mi Calm Calm - N/A   Clear
2:57 AM 66.9 °F 28.9 °F 24% 29.90 in 10.0 mi North 3.5 mph - N/A   Clear
3:57 AM 66.0 °F 28.9 °F 25% 29.89 in 10.0 mi NE 3.5 mph - N/A   Clear
4:57 AM 61.0 °F 32.0 °F 34% 29.89 in 10.0 mi Calm Calm - N/A   Clear
5:57 AM 61.0 °F 32.0 °F 34% 29.90 in 10.0 mi Calm Calm - N/A   Clear
6:57 AM 61.0 °F 32.0 °F 34% 29.92 in 10.0 mi Calm Calm - N/A   Clear
7:57 AM 66.0 °F 32.0 °F 28% 29.94 in 10.0 mi NNW 4.6 mph - N/A   Clear
8:57 AM 75.0 °F 28.9 °F 18% 29.95 in 10.0 mi NNW 6.9 mph - N/A   Clear
9:57 AM 78.1 °F 28.0 °F 16% 29.95 in 10.0 mi North 11.5 mph - N/A   Clear
10:57 AM 81.0 °F 28.9 °F 15% 29.94 in 10.0 mi North 11.5 mph - N/A   Clear
11:57 AM 82.9 °F 28.0 °F 14% 29.92 in 10.0 mi North 11.5 mph 19.6 mph N/A   Clear
12:57 PM 84.9 °F 28.0 °F 13% 29.90 in 10.0 mi NNW 9.2 mph - N/A   Clear
1:57 PM 86.0 °F 24.1 °F 10% 29.87 in 10.0 mi North 11.5 mph - N/A   Clear
2:57 PM 87.1 °F 18.0 °F 8% 29.86 in 10.0 mi North 13.8 mph 21.9 mph N/A   Clear
3:57 PM 86.0 °F 21.9 °F 10% 29.86 in 10.0 mi North 11.5 mph 21.9 mph N/A   Clear
4:57 PM 84.9 °F 21.9 °F 10% 29.86 in 10.0 mi North 12.7 mph 20.7 mph N/A   Clear
5:57 PM 82.0 °F 24.1 °F 12% 29.87 in 10.0 mi North 8.1 mph - N/A   Clear
6:57 PM 79.0 °F 24.1 °F 13% 29.88 in 10.0 mi North 6.9 mph - N/A   Clear
7:57 PM 75.0 °F 26.1 °F 16% 29.91 in 10.0 mi NNE 4.6 mph - N/A   Clear
8:57 PM 73.9 °F 25.0 °F 16% 29.93 in 10.0 mi NNE 4.6 mph - N/A   Clear
9:04 PM 73.0 °F 26.1 °F 17% 29.94 in 7.0 mi North 4.6 mph - N/A   Partly Cloudy
9:57 PM 72.0 °F 26.1 °F 18% 29.95 in 10.0 mi North 6.9 mph - N/A   Clear
10:57 PM 70.0 °F 26.1 °F 19% 29.96 in 10.0 mi North 6.9 mph - N/A   Clear
11:57 PM 71.1 °F 25.0 °F 18% 29.96 in 10.0 mi North 6.9 mph - N/A   Clear